Change the Weather History Date:

Thursday, May 30, 2013

  Actual Average Record
Temperature  
Mean Temperature 68 °F 68 °F  
Max Temperature 78 °F 79 °F 102 °F (1998)
Min Temperature 57 °F 57 °F 39 °F (1889)
Degree Days  
Heating Degree Days 0 2  
Month to date heating degree days 152 129  
Since 1 July heating degree days 5499 5393  
Cooling Degree Days 3 4  
Month to date cooling degree days 88 66  
Year to date cooling degree days 98 83  
Growing Degree Days 18 (Base 50)    
Moisture  
Dew Point 55 °F    
Average Humidity 72    
Maximum Humidity 90    
Minimum Humidity 53    
Precipitation  
Precipitation 0.45 in 0.15 in 2.10 in (1894)
Month to date precipitation 5.54 4.02  
Year to date precipitation 11.39 9.85  
Snow  
Snow 0.00 in 0.00 in T in (1970)
Month to date snowfall T 0.0  
Year to date snowfall 20.3 13.7  
Since 1 July snowfall 28.8 20.2  
Snow Depth 0.00 in    
Sea Level Pressure  
Sea Level Pressure 29.60 in    
Wind  
Wind Speed 10 mph (SW)    
Max Wind Speed 31 mph    
Max Gust Speed 46 mph    
Visibility 10 miles    
Events Rain , Thunderstorm    
T = Trace of Precipitation, MM = Missing Value Source: NWS Daily Summary

Daily Weather History Graph

Daily Weather History Graph

Search for Another Location

Airport or City:

Trip Planner

Search our weather history database for the weather conditions in past years. The results will help you decide how hot, cold, wet, or windy it might be!

Date:

Astronomy

May. 30, 2013 Rise Set
Actual Time 6:05 AM CDT 8:50 PM CDT
Civil Twilight 5:34 AM CDT 9:22 PM CDT
Nautical Twilight 4:54 AM CDT 10:02 PM CDT
Astronomical Twilight 4:09 AM CDT 10:47 PM CDT
Moon 12:53 AM CDT 12:14 PM CDT
Length of Visible Light 15h 48m
Length of Day
14h 44m
Waning Gibbous, 62% of the Moon is Illuminated
May 30
Waning Gibbous
May 31
Last Quarter
Jun 8
New
Jun 16
First Quarter
Jun 23
Full

Hourly Weather History & Observations

Time (CDT) Temp. Dew Point Humidity Pressure Visibility Wind Dir Wind Speed Gust Speed Precip Events Conditions
12:55 AM 60.1 °F 57.0 °F 90% 29.57 in 10.0 mi ESE 6.9 mph - 0.00 in   Scattered Clouds
1:55 AM 61.0 °F 57.0 °F 87% 29.57 in 10.0 mi SSE 20.7 mph - N/A   Overcast
2:55 AM 60.1 °F 57.9 °F 93% 29.62 in 6.0 mi SSW 15.0 mph 23.0 mph 0.07 in Rain Rain
3:55 AM 60.1 °F 55.9 °F 86% 29.59 in 9.0 mi SSW 6.9 mph - 0.14 in Rain Light Rain
4:07 AM 60.8 °F 55.4 °F 82% 29.61 in 7.0 mi SSW 10.4 mph - 0.02 in Rain , Thunderstorm Rain
4:33 AM 59.0 °F 55.4 °F 88% 29.60 in 8.0 mi South 5.8 mph - 0.10 in Rain Light Rain
4:55 AM 59.0 °F 55.9 °F 90% 29.56 in 9.0 mi SE 4.6 mph - 0.15 in Rain Light Rain
5:55 AM 60.1 °F 55.0 °F 83% 29.55 in 10.0 mi Calm Calm - 0.05 in   Mostly Cloudy
6:55 AM 59.0 °F 55.0 °F 87% 29.60 in 10.0 mi Calm Calm - 0.00 in   Scattered Clouds
7:55 AM 59.0 °F 55.9 °F 90% 29.57 in 10.0 mi SE 6.9 mph 19.6 mph 0.00 in Rain Light Rain
8:38 AM 59.0 °F 55.4 °F 88% 29.57 in 10.0 mi NW 12.7 mph - 0.00 in   Mostly Cloudy
8:52 AM 60.8 °F 55.4 °F 82% 29.61 in 10.0 mi West 12.7 mph - 0.00 in   Scattered Clouds
8:55 AM 60.1 °F 55.9 °F 86% 29.57 in 10.0 mi West 11.5 mph - 0.00 in   Partly Cloudy
9:55 AM 62.1 °F 57.0 °F 84% 29.61 in 10.0 mi SW 12.7 mph 18.4 mph N/A   Clear
10:55 AM 64.0 °F 57.9 °F 80% 29.60 in 10.0 mi WSW 15.0 mph - N/A   Partly Cloudy
11:55 AM 68.0 °F 59.0 °F 73% 29.61 in 10.0 mi SW 15.0 mph 19.6 mph N/A   Clear
12:55 PM 70.0 °F 57.9 °F 65% 29.60 in 10.0 mi SSW 12.7 mph - N/A   Clear
1:55 PM 71.1 °F 59.0 °F 66% 29.59 in 10.0 mi WSW 12.7 mph 24.2 mph N/A   Partly Cloudy
2:55 PM 73.0 °F 57.9 °F 59% 29.57 in 10.0 mi SW 13.8 mph - N/A   Clear
3:55 PM 75.9 °F 57.9 °F 54% 29.56 in 10.0 mi WSW 10.4 mph - N/A   Clear
4:55 PM 75.9 °F 57.0 °F 52% 29.56 in 10.0 mi SW 12.7 mph 21.9 mph N/A   Clear
5:33 PM 69.8 °F 50.0 °F 49% 29.64 in 10.0 mi WSW 27.6 mph 42.6 mph N/A Thunderstorm Scattered Clouds
5:55 PM 62.1 °F 50.0 °F 65% 29.62 in 10.0 mi West 26.5 mph 35.7 mph 0.04 in Rain , Thunderstorm Light Thunderstorms and Rain
6:12 PM 64.4 °F 46.4 °F 52% 29.62 in 10.0 mi West 29.9 mph 40.3 mph 0.00 in Rain Light Rain
6:55 PM 66.0 °F 51.1 °F 59% 29.60 in 10.0 mi WSW 6.9 mph - 0.00 in   Clear
7:55 PM 69.1 °F 52.0 °F 54% 29.60 in 10.0 mi West 3.5 mph - N/A   Clear
8:55 PM 62.1 °F 51.1 °F 67% 29.64 in 10.0 mi SW 6.9 mph - N/A   Clear
9:16 PM 62.6 °F 51.8 °F 68% 29.67 in 10.0 mi Calm Calm - N/A Thunderstorm Mostly Cloudy
9:31 PM 62.6 °F 51.8 °F 68% 29.63 in 10.0 mi ENE 6.9 mph - N/A   Scattered Clouds
9:55 PM 61.0 °F 51.1 °F 70% 29.64 in 10.0 mi South 10.4 mph - N/A   Clear
10:55 PM 61.0 °F 51.1 °F 70% 29.66 in 10.0 mi South 4.6 mph - N/A   Clear
11:55 PM 60.1 °F 52.0 °F 75% 29.67 in 10.0 mi South 8.1 mph - N/A   Clear